Regional Weather Roundup
Issued by NWS Cleveland, OH

Home | Current Version | Previous Version | Text Only | Print | Product List | Glossary Off
Versions: 1 2 3 4 5 6 7 8 9 10 11 12 13 14 15 16 17 18 19 20 21 22 23 24 25 26 27 28 29 30 31 32 33 34 35 36 37 38 39 40 41 42 43 44 45 46 47 48 49 50

000
ASUS41 KCLE 260400
RWRCLE
OHIO REGIONAL WEATHER ROUNDUP
NATIONAL WEATHER SERVICE WILMINGTON, OH
1200 AM EDT SAT JUL 26 2014

NOTE: "FAIR" INDICATES FEW OR NO CLOUDS BELOW 12,000 FEET WITH NO
SIGNIFICANT WEATHER AND/OR OBSTRUCTIONS TO VISIBILITY.

OHZ001>008-015>018-024>027-034-035-043-044-260500-
   NORTHWEST OHIO

CITY           SKY/WX    TMP DP  RH WIND       PRES   REMARKS
DEFIANCE       PTCLDY    67  56  67 S3        29.99F
FINDLAY        CLOUDY    67  58  72 S3        29.99S
TOLEDO EXPRESS MOCLDY    66  57  72 S5        29.99R
TOLEDO METCALF MOCLDY    70  56  61 SW6       30.00R
LIMA           CLOUDY    68  58  70 S5        30.01S
$$

OHZ009>014-019>023-028>033-038-089-260500-
   NORTHEAST OHIO

CITY           SKY/WX    TMP DP  RH WIND       PRES   REMARKS
CLE-HOPKINS    LGT RAIN  64  58  80 SE5       30.02S
CLE-LAKEFRONT  LGT RAIN  66  58  75 SE7       29.99S
CUY CO. ARPT   NOT AVBL
LORAIN-ELYRIA  LGT RAIN  67  58  72 E3        30.00F
ASHTABULA      CLOUDY    62  56  80 CALM      30.01F
AKRON-CANTON   LGT RAIN  69  58  67 SW3       30.02F
WOOSTER        NOT AVBL
MANSFIELD      CLOUDY    67  58  72 SW3       30.02F
YOUNGSTOWN     LGT RAIN  65  56  72 CALM      30.02S
$$

OHZ042-051>053-060>062-070>072-077>081-260500-
  SOUTHWEST OHIO

CITY           SKY/WX    TMP DP  RH WIND       PRES   REMARKS
CINC-COVINGTON MOCLDY    66  59  78 SW3       30.02R
CINC-LUNKEN    MOCLDY    65  62  90 CALM      30.01R
HAMILTON       PTCLDY    66  63  90 CALM      30.02R
DAYTON         NOT AVBL
WRIGHT-PAT AFB CLOUDY    68  60  75 N1        30.02R
DAYTON GENERAL CLOUDY    71  60  68 CALM      30.01S
WILMINGTON     CLOUDY    67  61  81 CALM      30.01F
$$

OHZ036-037-039>041-045>050-054>059-063>069-073>076-082>088-260500-
  CENTRAL AND SOUTHEAST OHIO

CITY           SKY/WX    TMP DP  RH WIND       PRES   REMARKS
COLUMBUS       CLOUDY    73  58  59 CALM      30.01S
OSU AIRPORT    CLOUDY    67  60  78 N5        30.02R
BOLTON FIELD   NOT AVBL
RICKENBACK AFB NOT AVBL
NEWARK         CLOUDY    67  63  87 CALM      30.01R
MARION         CLOUDY    66  59  78 S3        30.02S
LANCASTER      CLOUDY    66  63  90 CALM      30.02R
ZANESVILLE     CLOUDY    66  61  84 NW3       30.02R
NEW PHILLY     CLOUDY    64  61  90 SE3       30.02F
$$


USA.gov is the U.S. government's official web portal to all federal, state and local government web resources and services.